Location: Pedimozza
(42.0500°N, 9.3500°E)
Time: 15:52:46
(UTC+00:00)

Terra - Pass Details

Date: 19 August 2019
Orbit: 701 x 703 km, 98.2° (Epoch: 18 October)

Event Time Altitude Azimuth Distance (km) Brightness Sun altitude
Exits shadow 19:51:28 12° 72° (ENE) 2,030 3.9 -16.4°
Maximum altitude 19:52:20 13° 60° (ENE) 1,996 3.9 -16.5°
Drops below altitude 10° 19:54:21 10° 35° (NE) 2,178 4.4 -16.8°
Sets 19:57:53 0° 7° (N) 3,103 5.6 -17.4°
